Track STARLINK-3923 now! 10-day predictions STARLINK-3923 is classified as:
1 52489U 22049AQ 22180.58334491 -.00652959 00000-0 -12231-1 0 9993 2 52489 53.2177 359.0710 0001467 51.4535 235.5827 15.50465979 1308